Weather History for Storm Lake, IA

Change the Weather History Date:

Thursday, August 30, 2012

  Actual Average Record
Temperature  
Mean Temperature 80 °F -  
Max Temperature 95 °F 79 °F 95 °F (2012)
Min Temperature 66 °F 59 °F 51 °F (2006)
Cooling Degree Days 16    
Growing Degree Days 30 (Base 50)    
Moisture  
Dew Point 60 °F    
Average Humidity 54    
Maximum Humidity 83    
Minimum Humidity 30    
Precipitation  
Precipitation 0.00 in - - ()
Sea Level Pressure  
Sea Level Pressure 29.88 in    
Wind  
Wind Speed 11 mph (SSW)    
Max Wind Speed 23 mph    
Max Gust Speed 34 mph    
Visibility 10 miles    
Events      
Averages and records for this station are not official NWS values.
T = Trace of Precipitation, MM = Missing Value Source: NWS Daily Summary

Daily Weather History Graph

Daily Weather History Graph

Search for Another Location

Airport:

Trip Planner

Search our weather history database for the weather conditions in past years. The results will help you decide how hot, cold, wet, or windy it might be!

Date:

Astronomy

Aug. 30, 2012 Rise Set
Actual Time 6:44 AM CDT 7:57 PM CDT
Civil Twilight 6:15 AM CDT 8:26 PM CDT
Nautical Twilight 5:40 AM CDT 9:01 PM CDT
Astronomical Twilight 5:03 AM CDT 9:38 PM CDT
Moon 7:11 PM CDT (8/30) 5:46 AM CDT (8/30)
Length of Visible Light 14h 11m
Length of Day
13h 13m
Waxing Gibbous, 99% of the Moon is Illuminated
Aug 30
Waxing Gibbous
Aug 31
Full
Sep 8
Last Quarter
Sep 15
New
Sep 22
First Quarter

Hourly Weather History & Observations

Time (CDT) Temp. Heat Index Dew Point Humidity Pressure Visibility Wind Dir Wind Speed Gust Speed Precip Events Conditions
12:15 AM 71.6 °F - 60.8 °F 69% 29.86 in 10.0 mi South 9.2 mph - N/A   Clear
12:35 AM 71.6 °F - 60.8 °F 69% 29.86 in 10.0 mi South 9.2 mph - N/A   Clear
12:55 AM 71.6 °F - 60.8 °F 69% 29.86 in - South 10.4 mph - N/A   Clear
1:15 AM 71.6 °F - 60.8 °F 69% 29.86 in 10.0 mi South 10.4 mph - N/A   Clear
1:35 AM 71.6 °F - 60.8 °F 69% 29.86 in 10.0 mi South 9.2 mph - N/A   Clear
1:55 AM 69.8 °F - 60.8 °F 73% 29.86 in 10.0 mi South 8.1 mph - N/A   Clear
2:15 AM 69.8 °F - 60.8 °F 73% 29.86 in 10.0 mi South 8.1 mph - N/A   Clear
2:35 AM 69.8 °F - 60.8 °F 73% 29.86 in 10.0 mi South 9.2 mph - N/A   Clear
2:55 AM 69.8 °F - 60.8 °F 73% 29.86 in 10.0 mi South 9.2 mph - N/A   Clear
3:15 AM 69.8 °F - 60.8 °F 73% 29.86 in 10.0 mi South 8.1 mph - N/A   Clear
3:35 AM 69.8 °F - 60.8 °F 73% 29.86 in 10.0 mi South 9.2 mph - N/A   Clear
3:55 AM 69.8 °F - 60.8 °F 73% 29.86 in 10.0 mi South 9.2 mph - N/A   Clear
4:15 AM 68.0 °F - 60.8 °F 78% 29.87 in 10.0 mi South 9.2 mph - N/A   Clear
4:35 AM 68.0 °F - 60.8 °F 78% 29.87 in 10.0 mi South 8.1 mph - N/A   Clear
4:55 AM 68.0 °F - 60.8 °F 78% 29.87 in 10.0 mi South 8.1 mph - N/A   Clear
5:15 AM 66.2 °F - 59.0 °F 78% 29.87 in 10.0 mi South 10.4 mph - N/A   Clear
5:35 AM 66.2 °F - 60.8 °F 83% 29.86 in 10.0 mi South 9.2 mph - N/A   Clear
5:55 AM 66.2 °F - 60.8 °F 83% 29.87 in 10.0 mi South 9.2 mph - N/A   Clear
6:15 AM 66.2 °F - 60.8 °F 83% 29.87 in 10.0 mi South 8.1 mph - N/A   Clear
6:35 AM 66.2 °F - 60.8 °F 83% 29.87 in 10.0 mi South 8.1 mph - N/A   Clear
6:55 AM 66.2 °F - 60.8 °F 83% 29.87 in 10.0 mi South 9.2 mph - N/A   Clear
7:15 AM 66.2 °F - 60.8 °F 83% 29.88 in 9.0 mi South 9.2 mph - N/A   Clear
7:35 AM 68.0 °F - 59.0 °F 73% 29.88 in 9.0 mi South 8.1 mph - N/A   Clear
7:55 AM 71.6 °F - 59.0 °F 64% 29.88 in 10.0 mi South 10.4 mph 17.3 mph N/A   Clear
8:15 AM 73.4 °F - 59.0 °F 61% 29.89 in 10.0 mi SSW 12.7 mph 18.4 mph N/A   Clear
8:35 AM 73.4 °F - 59.0 °F 61% 29.89 in 10.0 mi SSW 12.7 mph 21.9 mph N/A   Clear
8:55 AM 75.2 °F - 59.0 °F 57% 29.89 in 10.0 mi SSW 15.0 mph - N/A   Clear
9:15 AM 77.0 °F - 59.0 °F 54% 29.89 in 10.0 mi SSW 16.1 mph 23.0 mph N/A   Clear
9:35 AM 78.8 °F - 59.0 °F 51% 29.89 in 10.0 mi SSW 12.7 mph 20.7 mph N/A   Clear
9:55 AM 82.4 °F 82.5 °F 59.0 °F 45% 29.89 in - SSW 17.3 mph 26.5 mph N/A   Clear
10:15 AM 84.2 °F 83.8 °F 59.0 °F 42% 29.89 in 10.0 mi SSW 17.3 mph 26.5 mph N/A   Clear
10:35 AM 84.2 °F 83.5 °F 57.2 °F 40% 29.89 in 10.0 mi SW 23.0 mph 28.8 mph N/A   Clear
10:55 AM 86.0 °F 84.9 °F 57.2 °F 37% 29.89 in 9.0 mi SSW 17.3 mph 29.9 mph N/A   Clear
11:15 AM 87.8 °F 87.1 °F 59.0 °F 38% 29.90 in 10.0 mi SSW 19.6 mph 31.1 mph N/A   Clear
11:35 AM 89.6 °F 88.9 °F 59.0 °F 36% 29.89 in 10.0 mi SW 20.7 mph 28.8 mph N/A   Clear
11:55 AM 89.6 °F 88.1 °F 57.2 °F 33% 29.89 in 9.0 mi SW 23.0 mph 34.5 mph N/A   Clear
12:15 PM 91.4 °F 89.9 °F 57.2 °F 31% 29.89 in 10.0 mi SW 17.3 mph 31.1 mph N/A   Clear
12:35 PM 91.4 °F 89.9 °F 57.2 °F 31% 29.89 in 10.0 mi SW 19.6 mph 31.1 mph N/A   Clear
12:55 PM 91.4 °F 89.9 °F 57.2 °F 31% 29.89 in 9.0 mi SW 20.7 mph 29.9 mph N/A   Clear
1:15 PM 93.2 °F 92.6 °F 59.0 °F 32% 29.89 in 10.0 mi SW 18.4 mph 27.6 mph N/A   Clear
1:35 PM 93.2 °F 92.6 °F 59.0 °F 32% 29.88 in 10.0 mi SW 17.3 mph 25.3 mph N/A   Clear
1:55 PM 93.2 °F 92.6 °F 59.0 °F 32% 29.88 in 9.0 mi SSW 18.4 mph 26.5 mph N/A   Clear
2:15 PM 95.0 °F 94.4 °F 59.0 °F 30% 29.88 in 10.0 mi SW 16.1 mph 23.0 mph N/A   Clear
2:35 PM 95.0 °F 94.4 °F 59.0 °F 30% 29.87 in 10.0 mi SSW 18.4 mph 27.6 mph N/A   Clear
2:55 PM 95.0 °F 94.4 °F 59.0 °F 30% 29.87 in 10.0 mi South 13.8 mph 26.5 mph N/A   Clear
3:15 PM 95.0 °F 94.4 °F 59.0 °F 30% 29.87 in 10.0 mi SSW 18.4 mph 29.9 mph N/A   Clear
3:35 PM 95.0 °F 94.4 °F 59.0 °F 30% 29.87 in 10.0 mi SW 19.6 mph 29.9 mph N/A   Clear
3:55 PM 95.0 °F 94.4 °F 59.0 °F 30% 29.86 in 10.0 mi SSW 17.3 mph - N/A   Clear
4:15 PM 95.0 °F 94.4 °F 59.0 °F 30% 29.86 in 10.0 mi SSW 18.4 mph 25.3 mph N/A   Clear
4:35 PM 95.0 °F 94.4 °F 59.0 °F 30% 29.86 in 10.0 mi SW 15.0 mph 24.2 mph N/A   Clear
4:55 PM 95.0 °F 94.4 °F 59.0 °F 30% 29.86 in 10.0 mi SSW 16.1 mph 21.9 mph N/A   Clear
5:15 PM 95.0 °F 94.4 °F 59.0 °F 30% 29.85 in 10.0 mi SSW 13.8 mph 21.9 mph N/A   Clear
5:35 PM 95.0 °F 94.4 °F 59.0 °F 30% 29.85 in 10.0 mi SSW 15.0 mph - N/A   Clear
5:55 PM 93.2 °F 92.6 °F 59.0 °F 32% 29.86 in 10.0 mi SSW 11.5 mph 19.6 mph N/A   Clear
6:15 PM 93.2 °F 93.3 °F 60.8 °F 34% 29.86 in 10.0 mi SSW 10.4 mph 17.3 mph N/A   Clear
6:35 PM 91.4 °F 90.7 °F 59.0 °F 34% 29.86 in 10.0 mi SSW 10.4 mph - N/A   Clear
7:15 PM 87.8 °F 87.6 °F 60.8 °F 40% 29.87 in 10.0 mi South 6.9 mph - N/A   Clear
7:35 PM 84.2 °F 84.4 °F 60.8 °F 45% 29.87 in 10.0 mi South 8.1 mph - N/A   Clear
7:55 PM 80.6 °F 81.8 °F 62.6 °F 54% 29.87 in 10.0 mi South 9.2 mph - N/A   Clear
8:15 PM 80.6 °F 81.8 °F 62.6 °F 54% 29.88 in 10.0 mi South 9.2 mph - N/A   Clear
8:35 PM 78.8 °F - 62.6 °F 57% 29.88 in 10.0 mi South 9.2 mph - N/A   Clear
8:55 PM 78.8 °F - 60.8 °F 54% 29.89 in 10.0 mi South 8.1 mph - N/A   Clear
9:15 PM 75.2 °F - 62.6 °F 65% 29.90 in 10.0 mi South 9.2 mph - N/A   Clear
9:35 PM 75.2 °F - 60.8 °F 61% 29.91 in 10.0 mi South 5.8 mph - N/A   Clear
9:55 PM 73.4 °F - 60.8 °F 65% 29.91 in 10.0 mi South 8.1 mph - N/A   Clear
10:15 PM 73.4 °F - 60.8 °F 65% 29.92 in 10.0 mi South 6.9 mph - N/A   Clear
10:35 PM 73.4 °F - 60.8 °F 65% 29.92 in 10.0 mi SSW 8.1 mph - N/A   Clear
10:55 PM 73.4 °F - 59.0 °F 61% 29.93 in 10.0 mi SSW 8.1 mph - N/A   Clear
11:35 PM 71.6 °F - 59.0 °F 64% 29.94 in 10.0 mi SW 9.2 mph - N/A   Clear
11:55 PM 73.4 °F - 59.0 °F 61% 29.95 in 10.0 mi West 9.2 mph 15.0 mph N/A   Clear